Flag for Norway Weather past 2 weeks in Kirkenes, Norway

Now
51 °F

Cool.


Feels Like: 48 °F
Forecast: 43 / 53 °F
Wind: 10 mph from Northwest

Location: Kirkenes Lufthavn

Current Time: Sep 15, 2014 at 12:00:00 PM

Latest Report: Sep 15, 2014 at 11:00 AM


Visibility: N/A

Pressure: 30.20 "Hg

Humidity: 58%

Dew point: 37 °F

Location of KirkenesLocation

Historic Weather in Kirkenes — Graph

°F

Kirkenes temperature yesterday

Maximum temperature yesterday: 54 °F (at 12:00 AM)
Minimum temperature yesterday: 42 °F (at 10:00 PM)
Average temperature yesterday: 46 °F

Past Weeks' High & Low Weather Summary

 TemperatureHumidityPressure
High62 °F (Sep 2, 4:00 PM)100% (Sep 1, 6:00 AM)30.37 "Hg (Sep 1, 6:00 AM)
Low38 °F (Sep 13, 5:00 AM)52% (Sep 13, 2:00 PM)29.67 "Hg (Sep 11, 2:00 PM)
Average50 °F77%29.97 "Hg
* Reported Aug 31 10:00 AM — Sep 15 10:00 AM, Kirkenes, Weather by CustomWeather, © 2014

Note: Actual official high and low records may vary slightly from our data, if they occured in-between our weather recording intervals... More about our weather records

Advertising

Kirkenes weather history for previous 24 hours

 ConditionsComfort  
Time TempWeatherWind HumidityBarometerVisibility
10:00 AM
Sep 15
51 °FCool.14 mph56%30.18 "HgN/A
9:00 AM49 °FCool.10 mph59%30.19 "HgN/A
8:00 AM48 °FCool.12 mph65%30.19 "HgN/A
7:00 AM47 °FCool.14 mph68%30.19 "HgN/A
6:00 AM45 °FCool.12 mph69%30.19 "HgN/A
5:00 AM44 °FQuite cool.13 mph71%30.19 "HgN/A
4:00 AM45 °FQuite cool.13 mph61%30.19 "HgN/A
3:00 AM43 °FQuite cool.12 mph64%30.21 "HgN/A
2:00 AM42 °FQuite cool.10 mph69%30.22 "HgN/A
1:00 AM42 °FQuite cool.8 mph73%30.23 "HgN/A
12:00 AM42 °FQuite cool.8 mph74%30.22 "HgN/A
11:00 PM
Sep 14
43 °FQuite cool.9 mph69%30.21 "HgN/A
10:00 PM42 °FQuite cool.8 mph77%30.21 "HgN/A
9:00 PM42 °FQuite cool.10 mph74%30.19 "HgN/A
8:00 PM42 °FQuite cool.6 mph74%30.19 "HgN/A
7:00 PM43 °FQuite cool.8 mph71%30.18 "HgN/A
6:00 PM44 °FQuite cool.12 mph68%30.17 "HgN/A
5:00 PM46 °FCool.10 mph68%30.16 "HgN/A
4:00 PM45 °FQuite cool.10 mph74%30.15 "HgN/A
3:00 PM43 °FQuite cool.10 mph79%30.13 "HgN/A
2:00 PM44 °FQuite cool.10 mph75%30.11 "HgN/A
1:00 PM46 °FCool.10 mph72%30.08 "HgN/A
12:00 PM44 °FQuite cool.7 mph80%30.08 "HgN/A
Weather by CustomWeather, © 2014

See weather overviewHow to use our weather pages